RH
48 40 57 76 85 83 77 77 76 76 77 78 74 72 71 69 70 69 74 78 81 83 81 80 85 89 91 82 82 95 92 96 102 99 99 90 84 84 91 93 86 81 80 82 79 73 63 54 48 44 46 50 50 44 39 37 35 36 37 37 35 34 34 33 34 34 34 34 35 35 34 35 35 33 31 29 29 28 27 26 25 25 25 24 23 21 20 19 18 19 19 19 21 23 24 24 28
47 39 35 42 57 60 58 62 63 65 70 73 69 67 69 75 80 76 76 80 84 88 87 83 85 88 86 78 76 85 90 95 96 97 98 90 87 84 85 83 75 72 72 74 71 66 59 50 41 34 32 33 31 27 28 29 29 30 32 33 33 33 32 30 31 32 33 34 34 33 34 34 34 34 33 32 33 32 31 30 29 29 28 27 25 23 22 20 19 20 20 22 25 25 26 27 27
46 44 39 33 35 33 33 37 40 46 51 57 60 60 61 73 84 82 78 80 83 86 84 84 86 82 76 72 73 76 81 86 87 96 99 91 87 80 75 69 64 64 64 62 57 56 57 52 42 33 28 25 23 22 22 24 26 29 31 32 32 32 30 29 28 29 29 30 31 31 31 31 32 32 32 34 35 35 35 36 36 36 35 32 29 26 25 23 22 23 24 26 28 29 30 30 28
49 47 47 42 39 33 27 24 25 31 35 37 42 48 53 67 83 86 82 80 81 82 78 77 77 74 71 68 68 72 76 80 82 92 99 87 75 71 66 61 57 55 52 48 45 47 51 50 41 33 26 21 19 19 20 22 25 27 29 31 32 32 29 27 25 25 25 25 27 27 27 29 30 30 32 33 34 36 36 37 37 37 37 36 34 32 29 27 26 25 28 30 31 32 32 33 29
45 44 44 41 40 40 36 28 24 24 27 27 28 35 43 55 72 82 85 83 80 78 75 74 74 72 71 65 65 72 74 79 81 87 95 81 63 61 57 53 50 45 41 37 37 42 48 50 43 36 27 19 17 16 17 18 20 21 24 28 29 28 25 23 21 21 21 21 22 23 26 28 30 31 32 32 33 34 35 36 35 35 36 35 34 34 33 32 29 26 28 30 34 35 32 37 34
39 39 38 35 33 34 36 34 29 25 23 22 21 24 30 38 48 59 68 73 74 75 72 70 72 72 72 67 66 68 68 74 78 79 86 74 56 54 49 43 41 37 35 31 31 37 44 47 41 32 24 18 16 15 14 13 15 17 20 23 24 23 22 21 19 18 18 19 21 23 27 28 30 32 32 32 32 33 35 37 38 40 39 37 35 33 33 33 31 30 30 29 36 42 37 42 45
43 44 40 37 34 29 29 31 29 27 25 23 23 21 22 27 31 36 42 50 57 66 70 66 65 70 75 73 70 70 69 71 70 71 78 68 49 45 42 36 35 34 33 29 28 30 36 39 33 22 17 16 16 15 13 11 12 14 16 19 20 19 19 18 17 16 17 19 21 23 25 27 30 31 31 31 32 33 33 36 40 43 44 42 37 35 37 34 31 31 36 34 32 41 42 44 50
49 54 52 48 44 36 33 33 30 28 26 27 28 27 24 24 27 28 31 37 46 60 69 63 56 63 77 77 73 73 72 71 67 69 75 60 42 39 35 32 33 34 33 30 27 28 35 36 27 17 16 17 18 16 13 11 11 13 14 16 16 15 15 15 16 17 20 23 24 26 27 31 31 30 29 28 30 30 31 34 38 44 46 43 39 36 33 33 38 42 50 49 35 36 41 44 50
56 60 62 62 57 47 44 42 39 34 31 30 29 30 29 26 28 27 29 32 43 63 73 65 53 54 71 76 73 75 74 70 65 68 74 58 40 35 33 31 31 31 31 29 25 26 34 30 21 21 19 15 17 15 11 13 13 14 15 14 15 14 14 16 19 23 27 30 32 35 38 40 38 35 33 32 34 34 36 36 37 42 43 44 42 33 32 46 60 64 63 59 48 45 46 48 50
64 65 67 66 59 52 49 46 43 38 32 30 27 26 26 27 27 26 29 29 33 48 59 64 57 50 60 71 74 76 73 67 61 61 64 54 39 34 33 31 29 29 30 29 25 25 30 26 21 21 17 13 15 13 15 18 15 15 15 13 14 15 19 23 27 30 33 35 38 41 43 45 46 48 49 50 52 53 54 51 46 40 40 47 40 36 53 68 73 74 69 58 49 50 52 56 57
67 67 66 62 54 49 45 40 35 33 31 29 27 22 18 21 24 23 25 25 25 26 35 50 56 49 49 62 70 72 71 66 60 54 49 43 36 33 34 35 33 31 30 28 25 26 28 26 21 16 14 13 12 16 21 17 11 11 11 13 18 24 30 32 33 35 36 37 41 43 45 47 50 58 63 63 63 66 68 67 58 43 47 52 45 58 75 75 73 76 74 62 50 54 58 57 59
62 61 60 56 50 44 40 34 29 27 27 25 24 19 11 11 17 21 20 17 19 20 24 35 44 45 41 49 57 58 66 67 60 54 46 40 37 37 39 41 38 33 29 27 24 24 26 22 18 15 15 13 14 22 18 7 6 9 12 18 26 35 38 36 34 35 36 39 46 48 49 50 53 61 65 62 61 69 73 72 64 55 60 55 60 80 78 76 80 76 73 66 54 63 72 61 55
57 55 56 54 45 37 32 28 25 24 21 18 17 15 11 9 10 13 14 12 13 14 16 22 29 34 33 37 42 41 51 61 60 54 47 43 42 41 40 38 34 29 25 22 21 22 21 19 17 17 17 16 20 22 10 3 8 12 19 24 30 40 41 36 33 33 35 40 49 52 53 56 58 61 59 58 60 67 71 74 72 68 64 55 68 81 73 81 85 75 76 71 54 63 85 77 65
56 53 55 54 47 38 32 27 23 22 20 18 16 13 12 10 9 9 9 8 9 10 10 12 16 19 22 25 29 28 34 50 60 55 46 44 42 39 34 28 26 25 21 19 21 21 19 18 16 18 21 20 20 15 6 7 16 23 28 31 35 42 40 35 33 32 34 37 45 50 52 56 61 60 55 56 59 60 63 70 71 67 61 53 63 70 68 77 76 75 82 82 67 62 79 80 76
58 57 58 58 56 51 51 48 38 33 31 28 23 16 13 9 10 12 11 10 8 9 9 8 9 10 11 12 15 17 22 40 59 61 51 43 38 33 29 26 25 22 20 19 19 19 18 15 12 18 23 19 17 13 10 17 28 35 37 38 39 40 36 33 32 32 34 35 39 42 42 46 54 58 55 55 57 58 58 60 60 58 57 53 57 62 63 63 63 73 80 81 75 67 72 74 77
60 60 61 63 64 61 62 63 57 54 48 41 34 23 16 10 10 14 15 14 9 7 9 8 9 9 9 10 10 11 18 34 53 60 53 43 37 34 32 30 26 21 19 17 16 16 13 10 11 18 18 12 13 14 16 25 34 38 38 37 34 33 31 29 30 31 33 34 34 34 30 30 37 46 52 55 55 56 56 55 55 54 54 55 57 58 59 55 53 64 76 79 74 73 75 73 74
61 61 61 62 63 63 62 65 66 65 58 49 43 31 20 12 9 13 13 12 7 4 5 5 7 8 10 12 11 11 17 28 41 51 48 42 38 37 35 28 22 19 17 14 12 11 10 13 19 20 15 11 14 17 21 27 33 36 36 32 28 27 25 24 27 27 29 29 29 28 24 21 23 31 40 47 50 51 51 50 51 50 48 56 57 55 60 57 52 58 68 72 67 64 63 60 59
60 60 59 57 59 60 61 67 68 67 66 58 49 39 28 17 9 9 11 9 4 1 2 3 5 5 8 11 11 10 14 23 32 40 41 38 36 32 28 22 20 18 15 11 8 11 17 24 24 19 17 17 20 21 23 26 30 32 30 26 23 21 18 19 21 21 22 21 21 22 22 21 19 24 32 37 41 41 41 39 38 36 32 38 39 39 46 46 48 54 58 59 54 47 43 40 37
56 55 55 55 58 59 59 68 66 65 65 58 56 47 32 20 10 9 9 6 2 1 3 3 5 5 7 10 10 10 14 21 27 31 32 30 28 24 21 19 18 15 10 8 11 19 25 25 21 19 20 21 22 21 19 21 24 25 23 19 17 16 16 16 16 17 17 15 15 17 19 20 19 22 26 28 30 29 29 28 26 23 19 18 16 16 20 21 26 34 40 43 39 32 27 24 26
51 49 50 51 54 59 62 64 62 63 55 47 52 44 29 17 7 7 5 2 1 2 4 3 4 5 6 9 10 10 14 19 23 25 24 22 21 19 18 17 14 10 7 11 19 24 24 20 19 20 22 22 21 18 16 16 15 17 17 15 15 16 16 16 17 17 17 15 14 16 18 20 19 19 20 20 22 22 23 23 21 18 14 10 6 5 6 8 9 13 19 21 21 17 14 16 28
52 48 49 50 51 55 61 60 55 55 47 43 43 33 26 15 3 4 2 1 2 2 3 3 3 4 6 8 8 8 12 16 20 22 22 21 21 20 18 17 12 8 8 16 24 23 20 18 17 17 19 19 16 14 13 12 11 13 16 16 17 19 20 20 20 19 18 18 17 18 20 20 19 17 16 14 13 14 15 15 14 12 9 5 3 2 3 5 5 6 7 8 8 6 6 11 22
57 53 51 49 49 49 56 60 51 41 37 40 34 26 25 14 3 3 2 1 1 2 4 3 4 4 6 7 7 7 10 16 20 23 24 23 22 20 18 18 16 10 9 16 22 21 19 18 16 14 13 13 11 10 10 9 11 14 17 19 23 25 26 25 23 21 19 18 18 20 21 21 19 16 10 8 8 7 7 7 6 5 4 4 2 1 1 3 6 5 4 3 2 2 3 7 11
56 54 51 48 48 49 54 55 43 29 27 30 21 18 20 11 6 3 3 3 2 3 4 4 4 4 5 6 6 7 11 15 19 20 20 20 21 20 18 19 19 14 9 14 18 18 17 17 14 12 10 9 8 9 10 10 11 13 15 19 24 29 29 28 25 22 19 18 19 20 21 20 18 13 8 8 9 5 4 4 4 5 5 5 4 3 2 2 5 5 2 2 1 1 3 4 6
49 49 49 47 48 51 51 44 34 22 21 24 13 11 14 9 7 5 5 6 4 4 4 5 4 4 6 6 6 7 12 16 17 17 16 17 18 18 18 17 18 15 10 12 17 16 14 12 10 9 9 9 11 12 13 12 12 11 13 17 21 24 25 25 24 22 21 20 19 20 20 21 19 16 14 14 9 4 3 4 5 6 7 7 6 5 5 3 4 4 2 2 2 2 3 4 5
44 44 49 50 51 54 46 30 22 14 10 12 7 8 10 8 8 8 7 7 7 6 3 5 4 4 6 6 6 7 11 16 18 17 15 16 15 14 13 12 13 11 10 13 17 16 12 9 8 8 9 11 13 14 15 14 15 16 18 20 20 19 16 16 19 21 20 19 18 17 17 20 21 19 17 14 7 5 5 5 7 7 7 7 7 6 6 6 5 5 4 4 4 4 5 6 6
42 43 53 56 55 55 42 19 9 5 1 3 3 5 7 7 9 8 6 7 9 7 4 4 3 5 6 7 6 5 8 13 17 17 14 13 11 9 6 7 9 9 10 14 16 15 11 8 6 7 8 11 12 13 16 19 23 25 24 22 19 15 10 9 11 12 12 12 11 9 8 10 13 12 12 11 7 6 6 6 7 7 8 7 7 7 7 7 7 7 7 6 6 6 6 6 6
42 43 56 58 53 52 37 13 2 1 1 2 2 3 4 5 6 4 3 4 7 7 4 4 3 4 5 7 5 5 6 8 12 15 12 10 8 6 4 4 7 8 10 12 14 12 8 5 4 5 6 8 10 13 16 21 26 24 18 15 12 9 6 5 6 6 6 5 4 3 3 3 6 7 9 9 8 7 6 7 7 7 8 7 7 8 8 8 8 8 8 7 7 6 6 6 6
39 40 53 55 49 45 30 10 2 2 3 6 7 8 8 8 7 5 3 2 3 4 3 2 3 4 4 6 5 4 6 6 8 10 9 9 9 9 8 5 5 6 8 9 10 7 4 3 3 4 6 8 10 11 14 19 23 17 8 7 6 5 5 5 5 5 5 5 5 4 5 5 7 8 10 10 8 8 7 7 7 7 8 8 8 8 8 8 8 9 8 8 8 8 8 7 7
39 36 47 52 47 38 23 10 6 9 12 14 17 17 15 13 10 10 9 5 1 1 3 1 1 3 4 5 5 5 5 7 7 7 8 10 11 12 10 6 4 4 6 6 5 4 3 2 2 4 5 6 5 6 10 15 20 16 7 5 6 5 6 7 7 7 7 7 7 7 7 8 9 10 11 10 9 9 9 8 8 8 8 9 9 9 9 9 9 9 9 9 9 9 9 9 9
40 37 41 43 45 33 17 17 16 16 21 23 28 32 30 25 14 11 15 10 1 -0 1 1 1 2 3 4 5 4 4 6 9 9 10 10 10 10 8 5 3 3 3 3 3 3 3 2 2 4 4 4 3 3 5 10 16 17 10 5 6 7 7 8 8 8 7 8 8 8 9 9 9 10 10 10 10 10 10 9 9 9 10 10 11 11 11 11 11 11 11 11 11 10 10 10 10
40 41 36 31 48 37 16 29 30 25 31 31 37 46 47 39 22 16 20 13 2 0 2 2 2 2 3 5 5 5 5 4 6 8 8 7 5 5 6 6 6 5 4 3 3 3 3 3 4 5 5 4 4 3 3 6 11 14 10 6 6 7 7 8 8 8 8 9 10 8 9 10 10 10 11 11 10 11 10 10 12 10 11 11 11 12 11 12 12 12 12 12 12 12 12 12 12
40 43 32 22 44 36 16 33 37 33 40 38 44 52 53 48 31 21 23 15 3 1 6 7 5 4 4 4 4 5 5 4 4 4 4 3 2 2 3 4 5 8 7 5 3 3 3 4 6 6 6 4 4 4 4 7 10 10 9 5 5 6 7 7 7 8 8 9 10 9 9 9 10 10 10 11 11 12 11 12 14 11 10 11 11 11 11 12 12 12 12 12 12 12 12 12 12
37 40 35 21 25 20 18 38 41 40 47 46 49 49 49 51 40 28 23 18 11 6 10 12 10 8 5 4 5 4 4 4 3 2 2 1 2 2 3 3 2 5 7 6 3 3 3 4 6 6 5 5 4 5 7 11 11 8 6 5 5 6 6 7 7 8 8 9 9 10 11 9 10 11 10 10 11 13 12 11 12 11 10 10 10 11 11 11 11 11 12 12 12 12 12 12 12
32 36 36 23 17 18 30 47 49 51 54 53 53 48 47 53 51 43 31 23 20 17 17 15 12 12 10 5 3 4 3 3 4 4 4 2 2 3 5 5 5 5 5 5 3 2 2 2 4 5 5 5 5 7 8 10 8 6 6 5 5 6 6 6 8 8 9 9 9 14 17 12 10 11 10 10 10 10 10 9 10 10 10 10 10 11 11 11 11 12 12 12 12 12 12 12 12
32 37 33 25 28 39 52 61 62 63 61 58 57 53 50 54 60 61 51 38 31 28 26 21 14 11 13 11 7 6 5 6 7 7 8 7 7 6 6 6 5 5 4 4 3 2 2 2 3 3 4 5 5 7 7 6 6 6 6 6 5 6 7 7 8 8 9 11 11 15 18 14 10 9 9 9 8 8 8 8 9 9 9 9 9 10 10 11 11 11 12 12 12 12 13 13 13
35 41 38 33 43 59 69 73 74 73 71 69 69 65 57 57 61 61 58 55 47 40 33 31 27 15 9 10 11 11 9 10 11 11 10 9 9 8 8 6 3 1 3 5 4 3 4 5 4 2 3 5 5 6 6 6 6 7 7 7 6 7 7 8 8 8 10 12 10 10 12 13 11 8 8 8 8 8 8 8 8 7 8 7 7 8 8 9 9 10 10 11 12 12 12 13 14
37 44 45 46 56 68 75 78 79 77 74 72 74 73 66 62 61 57 58 60 58 53 41 37 37 30 22 15 12 13 12 12 14 14 14 11 9 8 7 7 4 1 2 4 5 5 8 9 6 4 4 4 5 6 6 7 7 7 7 7 8 8 8 8 9 9 9 9 10 8 8 10 10 8 8 8 8 8 8 8 8 7 8 7 7 7 7 7 7 8 9 9 10 11 12 13 14
38 46 49 55 64 72 80 82 82 82 78 77 74 70 67 66 63 60 60 57 57 59 54 47 42 39 39 33 26 23 19 17 15 12 13 12 10 8 6 6 6 5 3 4 4 5 7 10 9 6 5 4 5 6 7 8 8 8 8 8 9 9 9 9 9 9 9 8 9 8 8 8 8 8 8 8 8 8 8 8 8 8 8 7 7 7 7 6 6 7 8 9 9 10 12 13 15
41 50 53 63 71 75 82 85 88 89 87 86 81 70 65 66 66 63 62 57 53 55 57 57 53 47 44 42 40 35 33 34 31 25 20 14 9 8 7 6 6 7 6 4 4 5 6 7 8 6 4 4 5 6 7 8 8 8 9 8 9 9 8 9 8 8 8 8 8 8 8 8 8 8 8 8 8 8 8 8 8 8 8 7 8 10 9 6 6 7 7 8 9 10 12 14 15
44 54 56 68 73 73 80 87 90 90 91 91 90 80 66 64 69 69 70 65 56 53 53 54 56 54 51 49 49 44 43 47 47 46 41 31 20 11 7 7 7 8 6 5 4 5 6 7 7 5 4 5 5 6 7 7 8 8 9 8 9 9 8 8 8 8 8 8 8 8 8 8 7 7 7 8 8 8 8 8 8 8 8 7 8 13 12 6 5 7 8 8 9 11 12 14 15
42 55 58 69 74 73 80 87 88 89 91 90 94 89 69 63 68 73 76 70 64 61 56 55 52 51 53 53 55 53 50 52 52 53 53 51 43 27 12 6 7 8 7 6 4 4 6 7 7 5 4 5 5 6 6 6 7 7 8 8 8 8 8 8 8 8 8 7 8 7 7 6 6 6 7 8 8 8 8 8 8 7 8 7 8 15 13 6 5 6 8 9 9 11 13 14 15
34 53 59 67 76 79 82 85 85 88 90 88 94 86 65 62 65 74 79 71 76 76 65 66 60 51 52 50 53 56 56 56 55 54 54 55 57 50 32 13 5 8 8 7 5 5 6 6 6 6 6 6 6 6 6 6 7 7 7 7 8 8 8 8 8 8 8 7 7 6 5 5 6 7 8 9 9 8 8 8 8 7 8 6 7 13 11 5 6 7 8 9 11 12 14 15 16
22 43 58 67 74 79 82 83 81 82 83 86 93 77 60 62 61 70 77 68 79 81 65 69 65 58 61 58 57 59 57 58 56 55 54 52 56 59 51 30 11 6 7 8 7 6 6 6 6 7 6 6 7 6 6 6 6 7 7 7 8 8 8 8 8 7 7 7 6 7 8 10 11 11 9 10 10 9 7 7 8 7 8 6 4 9 10 6 6 8 9 10 12 14 15 16 16
12 29 52 66 72 76 78 80 78 77 78 82 89 77 62 60 56 62 68 66 74 71 59 63 61 64 73 69 66 64 60 60 59 56 55 54 56 59 58 45 24 11 7 7 8 7 7 7 6 6 7 7 7 7 7 8 8 8 9 9 9 9 10 9 8 8 8 8 9 11 14 15 14 12 10 11 11 9 7 8 8 7 8 6 3 7 10 7 7 8 9 10 12 14 15 16 17
10 19 35 48 61 69 72 76 75 75 77 76 82 81 65 52 53 57 58 63 68 59 58 62 59 67 78 72 69 68 64 61 59 58 55 55 57 60 61 54 38 21 10 6 6 6 7 8 7 7 6 6 7 8 8 9 9 9 10 12 13 13 12 11 10 10 9 10 11 12 12 11 11 11 12 13 13 10 9 9 8 8 9 6 3 7 10 8 8 9 9 11 12 14 15 16 17
12 16 22 28 39 51 61 69 71 73 74 69 70 75 65 45 46 56 54 57 59 53 59 66 65 72 75 70 69 70 69 63 59 59 57 54 53 56 60 59 51 35 20 13 9 7 8 10 10 9 8 7 7 7 7 8 9 11 13 15 14 13 12 11 10 9 10 10 11 10 10 10 12 14 16 15 13 11 11 10 10 9 9 5 4 9 11 9 9 9 10 11 12 13 14 14 16
22 22 24 24 28 37 48 56 63 67 67 62 58 66 67 41 30 46 54 53 53 55 65 71 73 75 70 69 73 73 72 68 66 65 62 60 52 47 50 56 60 53 40 32 24 18 14 11 12 11 10 10 9 8 8 9 10 10 12 13 14 15 15 13 12 13 15 16 16 16 16 17 18 17 16 14 13 13 12 11 11 10 8 5 5 10 12 9 9 10 10 12 12 12 13 13 14
32 32 31 30 31 34 43 51 58 62 59 55 51 56 58 32 20 42 55 55 56 63 73 73 70 68 65 74 82 80 77 76 75 72 70 70 58 44 42 48 58 61 55 50 41 32 25 19 16 14 15 17 17 16 12 9 10 11 14 19 21 21 18 16 17 19 20 21 22 22 22 22 19 17 15 14 14 13 12 11 10 9 8 5 6 11 13 10 10 11 11 12 12 12 12 13 13
39 38 39 41 41 38 42 51 56 59 53 44 45 50 40 17 23 47 54 56 63 68 71 66 62 61 60 68 77 82 86 84 80 77 76 75 63 50 45 44 51 59 59 55 47 39 33 27 22 20 20 19 17 14 12 12 15 20 26 28 25 21 20 22 24 24 22 23 23 24 23 22 20 18 17 17 17 14 12 10 9 9 8 6 7 12 15 12 10 11 12 12 13 12 12 12 13
39 38 39 44 45 41 42 48 52 58 53 39 44 51 29 12 30 48 50 54 61 63 61 57 59 60 57 60 68 77 85 80 74 75 77 75 69 62 56 47 46 55 60 58 52 45 37 29 24 20 16 13 13 14 17 21 26 32 36 33 28 25 25 24 23 21 21 22 23 24 24 24 24 24 21 18 16 16 13 10 9 8 8 9 9 12 17 17 13 12 13 13 13 13 12 12 13
40 37 38 43 42 37 42 50 51 59 60 48 52 49 21 18 39 45 46 52 52 52 53 53 57 55 51 54 59 63 66 66 67 70 71 72 70 67 63 54 45 47 54 58 56 51 40 28 19 14 13 15 18 21 25 29 32 37 39 38 35 29 23 21 23 28 33 37 40 41 39 38 39 37 32 25 18 13 12 11 11 10 10 12 13 13 16 19 17 13 13 13 13 13 13 13 13
48 45 45 44 38 34 44 57 56 63 67 58 57 45 15 20 42 42 44 49 46 48 50 47 47 46 44 45 48 51 56 63 69 68 66 68 69 69 69 60 45 40 43 49 52 47 34 24 19 20 21 22 24 28 32 34 37 41 44 43 35 24 20 24 32 39 46 51 54 56 56 55 57 58 56 53 43 28 16 10 11 13 14 15 15 13 15 19 21 17 13 13 13 13 13 13 14
47 49 44 35 35 37 44 57 60 67 73 57 51 46 20 17 36 40 41 45 44 46 47 45 43 44 45 45 47 51 54 62 69 69 69 71 72 72 67 55 42 36 34 37 42 41 34 29 28 27 24 22 26 32 36 38 40 41 40 34 28 24 26 32 36 38 45 53 57 61 61 55 56 64 69 69 65 55 41 24 16 15 14 14 13 11 12 16 20 20 16 13 13 13 13 13 14
48 45 34 30 43 45 42 53 59 64 69 54 47 48 28 14 25 32 34 39 42 43 44 45 45 46 46 47 53 55 55 62 69 70 70 69 69 68 60 47 37 30 27 27 29 30 30 28 24 21 20 23 30 34 37 36 33 35 34 30 29 31 33 34 33 33 42 55 66 73 66 46 36 45 56 62 64 65 64 53 37 25 12 6 7 7 9 14 18 19 18 15 14 14 14 14 15
51 43 35 40 51 47 38 46 54 56 57 51 48 48 31 14 16 22 26 32 39 41 41 41 41 42 44 47 53 55 56 63 68 69 70 68 68 66 57 44 31 21 19 20 19 18 18 16 15 19 24 30 34 34 32 28 27 33 35 31 30 33 38 39 35 36 43 51 63 69 56 33 24 36 57 70 71 69 71 69 61 50 28 5 2 5 5 9 14 16 17 16 16 16 15 15 16
47 45 47 53 53 48 40 38 44 50 50 48 47 42 24 11 12 19 27 33 40 46 43 38 36 37 40 46 51 53 56 63 67 70 72 70 68 65 54 40 28 18 13 13 13 12 13 13 17 23 28 30 29 27 27 28 30 32 34 41 45 44 46 45 37 39 46 52 63 65 51 30 24 45 72 80 77 75 76 74 71 70 55 21 3 5 7 7 10 13 15 15 17 19 17 16 17
41 42 47 54 55 53 48 40 40 48 51 47 46 38 18 8 13 21 29 37 44 51 49 44 44 44 39 40 46 51 57 63 67 71 73 70 66 61 51 40 31 21 13 10 10 10 11 13 17 22 24 26 26 28 32 33 34 33 36 51 57 44 40 45 46 51 56 64 76 79 69 56 49 67 88 85 80 80 76 74 73 76 75 50 19 9 11 11 12 13 15 17 20 21 18 18 19
35 38 41 46 47 46 47 43 36 42 50 46 45 41 24 12 14 19 30 41 47 54 55 50 50 47 38 33 37 44 51 58 66 72 71 66 62 57 49 42 33 22 16 18 18 18 18 18 21 24 27 30 31 32 32 31 32 31 30 44 57 47 39 47 57 64 68 74 84 86 81 76 73 83 91 86 88 88 74 65 65 66 75 74 51 32 26 27 28 24 20 19 21 21 20 20 20
Wind_Speed
21 22 21 19 19 18 15 14 14 14 14 12 11 12 12 12 12 12 13 14 14 14 16 18 18 17 18 21 24 24 23 23 21 19 16 14 14 14 16 16 15 16 18 19 19 19 19 20 22 23 22 21 20 19 19 19 19 18 17 17 16 15 15 14 14 13 14 13 12 11 11 11 11 10 10 10 9 9 8 8 8 7 7 8 9 9 10 9 8 6 6 6 5 5 6 6 6
19 20 21 20 19 18 17 15 14 14 14 10 9 12 13 14 14 12 14 15 16 16 17 18 19 18 18 20 23 25 24 22 21 18 14 12 12 11 13 14 14 15 17 17 17 16 17 21 24 24 23 21 19 18 19 18 18 18 17 16 15 14 13 13 12 12 12 11 10 10 10 9 9 8 8 9 8 8 7 7 7 7 7 7 8 8 9 9 8 7 6 5 5 4 4 5 6
18 18 19 20 18 17 17 15 13 14 13 10 10 10 12 15 15 12 12 14 16 17 17 19 20 20 20 20 22 24 24 22 21 19 13 11 10 10 11 12 12 14 16 18 18 17 18 21 22 21 22 21 19 19 18 18 18 17 16 16 15 14 13 12 11 11 10 10 9 9 9 8 7 7 8 8 8 7 7 7 6 6 6 6 6 7 7 8 8 8 7 5 4 4 3 4 4
18 17 18 18 16 15 16 14 13 13 12 12 12 11 12 15 15 13 12 12 14 15 16 18 19 19 19 19 20 22 23 21 21 19 14 10 10 10 10 11 12 15 18 20 20 18 18 19 20 20 19 19 18 17 18 18 16 16 15 15 15 13 12 11 11 10 10 10 9 9 8 8 7 7 8 7 7 6 6 6 6 5 6 6 6 6 6 7 8 8 7 5 4 3 2 3 3
18 17 18 17 15 13 13 13 12 12 10 11 13 11 12 15 15 14 13 11 11 11 12 14 15 15 15 14 15 18 20 20 19 19 16 9 9 10 10 11 12 15 18 19 19 18 17 17 18 18 17 17 16 16 16 16 14 13 13 14 14 12 11 10 10 10 10 9 9 8 8 8 8 7 7 7 6 6 5 5 5 5 6 6 6 5 5 6 7 8 7 5 4 3 3 3 3
18 18 19 18 15 12 11 10 10 12 10 10 12 11 12 14 14 13 12 10 9 8 8 10 13 13 12 11 12 14 15 16 17 18 17 11 10 11 10 11 12 14 16 17 17 16 15 16 16 17 16 16 15 14 14 13 12 11 12 12 12 11 10 10 10 10 9 9 8 8 8 8 7 7 6 6 5 5 5 5 5 5 6 6 6 5 5 5 6 6 6 5 4 4 4 4 2
19 20 20 19 16 14 12 10 9 10 9 9 10 8 10 13 14 13 12 11 9 7 7 8 11 13 12 10 9 9 10 12 14 16 17 13 10 11 10 10 11 13 14 15 15 14 14 15 15 15 15 14 14 13 12 11 10 11 11 11 11 11 10 10 10 9 9 9 8 8 8 7 6 5 5 4 4 4 4 4 4 5 6 6 6 5 5 5 5 5 5 5 5 6 5 4 2
19 20 20 18 16 16 14 12 10 9 8 8 9 7 7 10 11 12 12 11 10 8 6 5 8 12 12 9 8 8 8 9 11 14 17 14 10 9 9 8 10 11 13 13 13 12 12 13 13 12 13 12 13 12 10 9 9 10 10 11 11 11 10 10 10 10 10 9 9 8 8 7 6 5 4 3 3 2 3 3 4 4 5 4 3 3 4 5 6 6 6 5 5 6 5 3 3
18 19 19 17 15 15 15 14 13 11 10 8 8 7 6 7 9 11 12 11 10 10 7 5 5 10 12 9 8 9 7 8 10 12 15 14 11 9 8 7 8 9 11 12 11 12 11 11 11 11 11 11 11 10 9 8 9 10 10 11 10 10 10 10 10 11 10 10 10 9 9 8 6 5 4 4 3 3 2 3 3 3 3 2 1 2 5 6 7 5 5 5 4 5 4 1 2
18 18 18 16 14 14 14 14 14 12 11 10 9 7 5 5 7 10 12 11 10 9 8 7 5 7 12 10 9 9 7 7 9 11 12 13 12 10 8 7 7 7 8 10 10 10 10 9 9 10 9 9 8 7 8 8 9 10 10 10 10 10 10 11 11 11 11 11 10 9 8 8 7 7 6 5 4 3 3 3 2 2 2 1 1 3 6 7 4 1 2 5 4 4 2 1 1
17 17 17 15 14 14 14 15 15 14 12 10 11 9 7 5 6 9 12 12 10 8 7 8 6 5 9 10 9 9 7 5 7 10 11 11 12 11 10 8 7 6 6 8 8 8 7 7 7 7 7 7 6 6 7 8 9 10 10 10 10 11 12 12 12 12 12 11 10 9 8 8 8 8 7 7 5 4 4 4 3 3 2 2 2 6 7 4 2 2 1 4 5 4 1 2 2
18 17 17 15 14 14 14 15 14 14 13 11 11 11 11 8 7 10 12 13 12 9 7 6 6 5 6 8 8 9 9 6 5 7 10 10 10 10 9 8 6 5 5 5 5 5 5 6 6 5 6 6 5 5 7 8 10 10 10 11 12 12 13 13 13 13 12 12 12 11 10 8 8 8 8 7 7 6 5 5 5 4 4 4 6 9 6 2 1 1 1 2 5 5 3 1 3
17 17 16 15 15 15 15 14 14 14 13 11 11 11 13 13 12 12 13 13 13 10 8 6 4 3 4 7 7 7 8 7 5 6 8 9 8 7 7 6 6 5 4 4 5 5 5 6 5 5 6 7 6 7 8 9 10 10 10 11 12 12 13 13 13 13 13 13 13 12 11 10 9 9 8 8 8 8 7 6 5 5 7 6 9 11 5 4 3 1 2 1 2 4 5 2 3
16 16 16 16 16 16 16 15 14 14 13 13 12 11 12 14 16 17 14 14 14 12 9 7 4 1 2 4 6 6 7 7 5 4 6 7 7 6 5 5 6 5 4 4 5 5 5 4 4 6 7 7 7 7 8 10 11 10 11 11 11 11 11 12 12 12 13 13 12 11 11 11 10 9 8 8 8 9 8 7 6 6 7 7 10 9 6 6 5 2 2 3 1 1 4 3 1
16 17 17 18 17 17 16 14 14 13 13 13 12 11 10 12 16 17 16 14 15 15 11 9 7 3 1 1 4 6 7 7 6 4 4 5 6 6 6 5 5 5 4 4 4 3 3 2 4 6 7 7 8 8 9 11 11 12 12 12 11 11 10 11 11 12 13 13 12 11 11 11 10 9 8 8 8 9 9 8 8 8 7 7 9 8 7 8 6 3 2 2 2 3 3 2 1
16 17 18 18 18 17 16 14 13 13 12 13 12 12 10 10 14 15 14 12 13 15 12 9 8 5 4 1 2 6 8 7 6 5 4 4 5 6 4 3 2 3 2 2 2 2 2 2 4 5 5 7 9 9 10 11 12 12 13 12 11 10 10 10 11 12 13 12 12 11 11 11 10 9 8 8 8 9 9 10 10 9 9 9 9 9 9 9 6 4 2 1 3 5 5 4 3
16 17 18 17 18 17 16 14 12 11 11 12 12 12 11 9 11 13 12 11 11 14 12 8 7 6 6 3 2 7 9 8 7 6 6 6 6 5 3 2 2 2 2 1 1 2 3 4 4 5 6 8 10 10 11 11 12 12 12 12 11 10 10 11 11 11 11 11 11 11 11 11 11 10 10 10 9 10 10 10 10 10 10 10 10 10 9 8 6 4 2 2 4 6 7 7 6
16 16 16 16 16 16 16 14 11 10 10 11 12 11 11 9 9 11 11 10 10 13 13 10 8 7 7 5 3 7 9 8 7 7 7 7 6 5 4 3 2 2 2 2 3 4 5 5 5 7 8 9 11 12 12 12 12 12 11 11 12 12 11 11 10 9 10 10 10 10 11 11 11 11 11 11 11 10 10 10 10 10 11 10 10 10 8 7 6 4 3 3 4 5 7 8 8
15 16 16 15 15 14 14 13 10 9 8 9 11 11 10 9 8 11 10 9 10 13 14 12 10 8 9 7 4 6 9 8 7 6 6 6 6 5 5 4 3 3 3 5 6 7 7 7 7 9 10 10 11 12 12 12 12 11 11 11 12 11 11 10 9 9 9 9 10 10 11 12 11 11 11 11 10 10 10 10 10 11 11 11 10 10 8 8 7 6 5 4 5 6 8 9 9
14 14 14 14 13 13 12 12 10 8 7 8 10 10 10 8 8 10 10 10 12 13 13 12 10 9 10 8 4 6 8 8 7 6 5 5 4 4 4 4 4 5 7 8 8 9 9 9 9 10 10 10 10 10 10 12 12 12 12 12 12 11 10 10 9 9 9 9 10 10 11 11 11 11 11 10 10 9 10 10 11 11 11 11 11 10 9 8 8 8 7 7 6 7 8 9 10
13 13 12 12 12 12 11 11 10 8 6 7 9 10 10 9 9 11 11 11 13 13 13 12 11 10 10 8 5 5 7 8 7 6 6 5 5 4 4 4 5 7 9 9 9 9 9 10 10 10 10 10 9 9 9 11 12 12 12 12 11 10 10 9 9 9 9 10 10 10 9 9 9 10 10 10 9 9 10 10 10 11 11 11 11 11 11 9 8 8 8 8 8 8 9 9 10
11 11 10 10 11 11 11 10 9 8 6 7 9 10 10 10 10 13 13 12 13 13 12 12 11 10 10 8 6 5 7 8 8 7 6 6 5 5 5 6 7 8 9 10 10 10 9 9 9 9 9 9 9 8 9 10 11 11 11 11 10 10 10 10 9 9 9 9 9 9 9 8 8 8 9 9 9 9 9 9 10 10 10 11 11 12 11 11 9 8 8 8 8 9 9 9 10
10 11 9 9 11 10 9 9 9 8 7 8 9 10 10 11 12 14 14 12 12 12 12 11 11 11 10 9 7 6 7 8 8 8 7 6 5 5 5 6 7 7 8 10 10 10 10 9 9 9 9 9 8 7 8 8 9 9 9 9 9 10 10 10 10 9 9 9 9 9 9 8 8 8 8 8 8 8 8 8 9 10 10 11 11 11 11 11 10 9 8 8 8 9 9 9 10
10 11 9 8 10 9 8 9 9 8 9 9 10 12 12 13 13 14 14 12 12 11 11 11 11 11 10 10 8 7 8 7 7 8 7 7 6 5 5 6 7 8 9 10 10 10 10 9 9 9 9 8 7 7 7 7 7 7 7 7 8 8 9 9 9 9 9 9 9 9 9 8 8 8 8 8 8 8 8 8 9 9 10 11 11 11 11 11 11 11 10 9 9 9 9 9 10
10 10 9 8 9 9 7 9 9 9 10 10 11 13 14 14 13 12 12 12 12 11 11 11 10 10 9 9 9 8 9 8 8 8 9 8 7 6 6 7 8 10 11 11 11 11 10 10 9 9 8 7 6 6 6 6 6 5 5 5 6 7 8 9 9 8 9 9 8 8 8 7 7 7 7 7 7 7 7 8 8 9 10 10 11 12 12 12 13 12 12 11 10 9 9 9 9
10 10 9 7 8 8 7 8 10 11 12 12 12 13 14 13 11 10 9 10 11 10 10 10 10 10 8 8 9 9 9 10 9 9 10 10 9 8 8 9 10 11 13 13 13 12 11 10 9 8 7 6 5 5 5 5 5 4 4 4 5 6 8 8 8 8 8 8 8 8 7 7 6 6 6 6 6 7 7 8 8 9 10 10 11 12 13 13 13 13 12 12 11 11 10 10 10
11 11 9 8 7 7 8 9 12 14 14 13 14 14 14 12 11 9 7 7 8 8 9 10 10 10 8 8 9 9 9 10 10 10 10 11 11 11 10 10 11 13 14 14 14 13 12 11 9 8 6 5 4 4 4 5 4 4 4 5 6 7 8 8 8 8 8 8 8 8 8 7 6 6 6 5 5 6 7 7 8 8 9 10 10 11 12 12 12 12 12 12 12 12 12 11 11
12 12 11 9 7 8 9 10 13 15 15 14 14 14 13 11 10 9 8 6 5 6 8 9 10 10 9 8 9 10 9 10 10 10 10 10 11 11 11 10 11 13 14 14 14 13 12 10 9 7 5 4 3 4 4 4 4 4 4 6 7 7 7 7 7 7 7 7 8 8 7 7 6 6 5 5 5 5 5 5 6 7 8 8 9 9 10 10 10 11 11 11 11 12 12 12 12
13 13 13 11 9 8 10 12 15 16 15 15 14 14 13 11 10 9 9 7 5 5 7 8 9 10 9 8 8 10 10 10 10 10 10 9 9 10 10 10 11 12 13 13 13 12 11 10 8 6 5 4 3 3 3 3 3 2 3 5 5 6 6 5 5 5 6 6 6 6 6 6 5 5 4 4 4 5 4 5 5 6 7 7 7 8 8 9 9 9 9 10 10 11 11 11 12
15 14 14 13 11 9 11 13 15 16 15 16 15 14 14 12 10 10 10 8 6 7 8 9 9 9 10 8 8 8 9 9 9 9 9 8 8 9 10 10 10 11 12 12 12 11 10 9 8 6 5 3 2 2 2 2 1 1 2 4 4 4 4 3 3 4 5 4 4 5 5 5 4 4 4 4 4 4 4 5 5 6 6 7 7 8 8 8 8 8 8 9 9 10 10 11 11
17 16 16 15 13 10 13 16 16 16 15 15 15 14 14 13 11 10 10 9 7 9 11 10 9 9 10 9 7 7 7 7 7 7 7 7 7 8 8 9 9 9 11 12 12 11 11 9 8 6 4 2 1 1 1 2 1 1 2 3 3 3 2 2 2 3 3 3 3 3 3 3 3 3 4 4 4 4 5 5 5 6 6 7 8 8 9 8 8 8 8 8 9 10 10 11 11
19 18 16 16 15 14 16 16 16 16 15 15 14 13 14 13 11 10 10 10 9 10 10 11 10 9 10 10 8 7 6 6 6 6 6 6 5 6 6 6 6 7 8 10 11 11 11 10 8 6 4 3 3 2 3 3 3 2 1 3 3 2 1 0 1 2 2 2 2 2 2 2 3 3 4 5 6 6 6 6 7 8 8 9 9 9 9 8 8 8 9 9 10 10 10 11 12
20 17 14 14 15 17 17 16 15 15 14 13 12 12 14 14 12 11 10 10 9 9 8 9 11 10 10 10 9 8 7 7 6 5 5 5 4 5 5 5 5 5 6 8 9 10 10 10 8 7 6 5 5 4 4 4 4 2 2 3 3 3 2 2 1 2 2 2 2 3 3 4 4 5 6 6 7 8 7 8 9 10 10 10 10 10 9 9 9 9 9 10 11 11 11 11 12
18 18 17 15 15 17 17 16 15 14 13 13 13 12 14 15 13 11 11 9 8 8 6 6 9 11 11 10 9 9 8 7 6 5 4 3 3 3 3 4 5 5 6 6 7 9 10 10 9 8 7 6 6 6 6 5 4 3 2 3 3 3 2 2 2 3 3 3 4 5 5 5 5 6 7 7 8 9 9 9 9 10 10 11 11 11 10 10 10 9 9 10 11 12 12 12 12
16 18 19 19 19 19 18 18 17 16 15 14 14 13 12 14 13 11 10 9 8 7 6 5 6 8 11 11 10 9 8 7 6 4 3 2 2 2 2 3 4 6 7 7 7 8 9 10 10 9 8 8 7 7 6 5 4 3 2 2 3 2 2 2 3 3 4 4 5 5 5 6 6 7 8 8 9 10 10 11 10 10 11 11 11 12 12 11 11 12 11 11 12 13 13 14 13
17 19 20 21 23 23 21 20 19 18 17 15 14 12 11 11 12 11 10 9 7 5 6 5 4 5 8 10 10 9 8 7 6 5 3 1 1 1 2 3 4 6 8 8 9 9 10 10 10 10 9 8 7 7 6 5 4 3 2 2 2 2 1 2 3 4 4 5 6 6 7 7 8 9 9 10 11 11 11 11 11 12 12 12 12 13 13 13 13 14 13 13 13 13 14 15 15
21 22 22 23 24 23 20 20 20 19 17 16 14 12 11 10 9 9 9 9 8 5 4 4 3 4 5 7 8 7 7 6 5 4 4 2 1 1 2 3 5 6 8 9 10 11 11 11 11 11 10 8 7 6 6 5 4 3 2 2 1 1 2 2 3 4 5 6 7 8 9 9 9 10 11 11 12 12 12 12 12 12 12 13 13 14 14 14 14 14 14 14 13 13 14 15 15
22 23 25 27 26 23 21 21 20 18 17 15 14 13 13 11 10 10 10 10 9 7 4 3 3 3 4 4 5 4 4 3 2 3 3 3 2 2 3 4 5 7 8 10 11 12 12 12 12 11 10 8 7 7 6 5 4 3 3 2 2 2 3 4 5 6 7 8 8 9 10 11 11 11 12 12 13 13 14 14 14 14 14 14 15 15 15 15 14 14 13 13 13 12 12 13 14
24 26 30 31 29 27 25 24 22 21 19 16 15 14 14 13 12 11 10 9 8 8 6 4 4 4 4 4 3 2 2 1 2 2 3 3 4 4 4 5 6 7 8 9 11 12 12 12 12 11 10 9 8 8 7 6 6 5 4 4 4 5 5 6 7 8 9 10 11 11 11 12 12 13 14 14 15 15 16 16 16 16 16 16 16 16 16 15 14 14 12 12 12 12 12 13 13
28 30 34 33 31 30 28 25 24 23 21 18 16 16 16 15 14 12 9 7 7 7 6 5 5 5 6 6 5 5 4 4 4 4 5 5 5 6 6 7 7 7 8 9 10 11 11 11 11 11 10 9 9 9 8 8 7 6 7 7 7 8 8 9 10 10 11 12 12 13 14 14 15 16 16 17 18 18 18 18 18 18 18 18 18 17 16 15 14 13 12 12 11 12 13 13 13
30 33 35 33 31 30 27 26 25 24 23 21 18 19 20 19 17 13 9 8 7 5 5 4 5 6 7 7 7 6 6 6 6 6 7 6 6 7 8 9 9 9 9 9 9 10 11 11 11 10 10 9 9 9 9 8 8 8 9 10 10 11 11 12 12 13 13 14 14 15 16 17 17 18 19 20 20 20 20 20 20 19 19 19 18 17 16 16 15 13 13 12 13 13 14 14 14
31 33 34 33 31 29 28 28 27 26 26 22 20 23 22 21 19 14 11 11 8 6 6 4 5 6 7 8 8 7 6 7 7 8 9 9 8 9 9 10 11 11 11 11 10 10 11 11 11 11 10 10 10 10 10 9 9 10 11 12 12 12 13 14 15 16 17 17 18 18 19 20 20 21 21 21 21 21 21 21 21 20 20 19 18 16 15 15 14 13 12 13 13 13 13 13 14
32 32 32 32 32 31 29 28 27 27 26 23 23 23 22 22 20 16 15 16 13 12 11 7 6 6 6 7 7 6 5 6 7 8 10 11 11 10 10 12 13 14 14 13 12 11 11 12 12 12 11 11 11 11 11 11 11 12 13 14 15 15 16 17 18 20 20 21 21 22 23 24 24 23 23 22 21 21 21 21 21 20 20 19 17 16 15 15 14 13 12 12 13 13 13 13 14
30 30 31 33 32 30 28 27 27 27 26 26 27 24 23 23 22 20 20 19 18 16 13 10 8 7 7 6 5 5 5 5 7 8 10 11 11 11 12 14 15 16 15 15 14 14 13 13 13 13 13 13 13 13 13 13 13 14 15 16 17 18 19 20 22 23 24 24 25 25 26 25 24 23 22 21 21 21 21 21 21 20 19 19 18 16 16 15 15 14 13 13 13 12 13 14 15
29 30 32 33 33 32 29 29 29 29 30 31 29 27 26 24 23 22 22 22 21 17 13 11 10 10 9 7 6 5 5 5 6 7 9 11 11 12 13 15 16 16 15 16 17 15 14 14 14 14 14 14 14 15 15 15 16 17 17 18 20 21 22 23 24 25 25 25 25 25 25 24 23 22 21 20 20 21 21 21 21 20 20 19 18 17 16 15 15 15 14 14 13 13 13 14 15
30 31 32 32 33 34 34 34 34 33 34 33 31 29 28 25 22 23 24 23 20 14 11 10 11 12 11 7 6 5 4 5 6 7 8 9 11 12 12 14 15 15 16 18 18 16 15 15 16 16 15 15 16 17 17 18 18 18 19 21 22 23 23 24 24 24 24 23 23 23 22 21 20 20 20 20 21 21 21 21 21 20 20 19 18 17 16 15 15 15 15 15 14 14 14 15 15
36 35 35 33 33 33 35 37 37 39 39 35 32 29 30 27 22 24 25 20 17 14 13 14 15 14 10 7 6 7 7 7 7 8 8 9 11 11 12 13 14 15 18 19 19 18 17 17 18 17 16 16 17 18 19 19 20 20 21 21 22 23 23 22 22 22 22 22 22 21 20 20 19 20 20 21 21 21 21 21 21 21 21 19 18 17 16 16 15 15 15 15 15 15 16 16 16
43 42 39 36 35 35 36 38 40 43 42 38 33 30 32 26 15 19 22 17 18 19 18 18 18 15 12 10 11 11 11 12 10 9 9 11 11 10 10 12 15 17 19 20 20 20 19 19 19 18 17 17 18 19 20 20 20 20 20 20 21 22 22 21 21 21 21 20 21 21 21 21 21 21 22 22 22 22 22 22 22 22 22 20 19 18 17 16 16 15 15 15 15 16 17 17 18
48 47 45 42 42 40 40 41 43 45 42 38 33 32 33 21 7 17 21 19 19 18 18 19 18 16 15 14 14 13 14 15 14 11 11 11 11 11 10 11 15 17 19 21 21 21 20 20 18 17 17 17 18 19 19 19 18 18 19 19 20 21 21 22 22 21 21 20 20 21 22 23 23 23 23 24 24 24 24 24 23 23 23 21 20 19 18 17 17 16 16 16 16 17 18 18 19
52 51 49 47 47 46 45 44 44 44 41 36 33 35 31 15 11 20 21 19 20 19 18 19 18 19 19 19 18 17 17 17 15 13 12 12 12 11 11 11 13 16 19 21 21 20 19 19 17 16 16 16 16 16 16 17 17 18 18 19 20 21 22 22 22 22 21 20 21 22 23 24 25 24 25 25 26 26 26 25 25 24 23 23 21 20 19 18 18 18 18 17 18 18 19 19 21
53 52 50 49 50 47 46 46 44 44 41 36 37 38 25 11 14 20 20 20 20 19 19 19 20 21 21 21 20 17 16 15 13 12 12 12 12 12 13 13 12 14 18 19 19 18 17 16 16 15 15 15 15 15 16 17 17 18 18 18 19 20 21 21 22 22 21 21 21 22 23 25 26 26 27 28 28 28 27 27 26 25 25 24 23 21 21 20 20 20 20 20 20 20 20 21 21
56 54 53 53 50 47 47 47 45 43 42 40 42 40 24 16 18 20 21 22 20 19 20 20 19 18 17 15 12 11 11 11 11 10 10 11 12 13 15 15 14 14 17 18 17 16 16 15 16 16 16 15 14 15 16 17 17 17 17 18 19 19 19 20 20 21 21 21 22 23 23 24 26 27 27 28 29 29 29 29 28 28 27 25 25 24 23 22 22 22 22 22 22 22 22 22 22
59 58 58 54 50 47 48 49 47 45 46 45 45 42 31 22 21 21 21 21 19 19 21 20 16 13 11 8 6 7 8 9 12 11 11 12 14 15 16 17 16 14 15 17 17 17 17 17 18 17 17 15 15 16 16 16 16 16 17 18 19 19 19 19 19 20 21 22 24 25 25 25 26 27 28 28 28 29 29 30 29 29 28 27 27 26 25 24 24 24 24 24 24 24 23 23 23
62 61 58 54 53 52 50 50 50 48 50 50 47 44 37 29 26 24 21 19 17 17 20 20 16 13 10 8 9 11 10 10 13 13 13 14 14 17 18 18 18 15 14 15 17 18 19 19 19 17 16 15 15 15 15 17 17 16 17 18 19 20 20 20 20 20 21 23 26 28 28 28 27 27 27 27 27 26 28 30 29 28 28 28 28 28 27 26 26 26 25 25 25 26 25 25 24
66 63 58 56 58 57 53 53 54 52 52 53 50 47 42 35 30 26 22 21 18 16 19 19 17 16 13 9 11 14 13 14 15 15 15 14 15 17 18 18 16 14 13 14 15 16 16 16 16 15 15 14 14 14 15 17 18 17 17 18 19 21 21 21 21 21 22 24 27 30 30 30 29 27 26 26 26 25 26 28 28 27 28 28 28 29 28 28 28 27 27 27 27 27 27 26 25
68 66 63 62 61 59 56 55 54 54 53 53 53 50 44 36 30 26 22 21 19 17 18 17 15 15 13 11 12 14 14 16 18 18 16 16 16 18 17 16 14 11 10 11 12 12 11 12 12 12 13 13 13 13 14 16 16 16 17 19 20 21 22 23 22 21 22 23 26 28 29 30 30 27 27 27 26 26 25 26 26 26 26 27 27 28 29 29 29 28 28 28 29 29 29 27 25
69 69 69 68 65 63 60 57 56 56 55 54 54 53 46 35 29 26 23 21 20 19 19 18 15 14 13 12 12 14 16 17 20 21 20 19 19 18 16 14 13 10 8 8 8 8 8 9 9 10 10 10 11 11 11 13 14 16 18 18 21 23 23 24 23 22 22 24 26 28 29 31 29 27 29 29 28 27 26 26 27 26 26 27 27 27 27 28 29 29 29 30 30 31 30 27 26
69 69 70 69 66 64 62 61 59 58 58 56 55 55 50 39 31 28 25 23 22 20 20 20 19 19 18 15 14 16 17 19 21 23 23 21 19 18 17 15 12 9 6 4 4 5 5 6 6 6 6 7 8 9 10 12 14 16 18 19 22 24 25 25 23 23 25 28 30 31 31 32 30 29 31 31 28 29 29 28 29 29 29 29 29 29 28 28 30 30 30 30 31 31 30 27 26
Wind_Direction
76 73 79 93 99 99 101 98 94 94 89 87 99 98 94 91 88 95 95 92 91 102 123 130 132 134 138 139 130 121 118 117 118 114 108 106 102 101 102 99 95 92 91 94 96 95 93 94 96 98 101 105 108 107 107 108 108 107 107 106 106 108 110 114 117 118 118 119 119 115 110 109 109 109 109 110 109 107 103 98 94 87 82 77 74 72 71 74 79 86 89 82 73 77 90 97 86
81 78 76 79 85 86 85 88 89 90 87 84 95 98 101 96 90 94 99 100 98 103 118 128 131 133 137 139 133 127 123 122 119 116 114 110 103 102 98 93 89 85 83 82 84 85 85 91 95 98 102 106 106 106 107 108 109 110 111 112 112 114 116 119 121 122 120 120 116 111 108 108 109 112 111 108 106 103 100 95 91 88 83 79 75 73 74 78 80 80 80 80 71 68 79 94 98
84 83 80 77 80 82 83 85 87 90 92 92 94 96 100 97 92 93 98 105 106 107 115 122 128 131 134 134 131 128 126 125 122 118 118 119 114 104 96 91 84 80 79 79 80 81 86 93 95 96 101 103 103 102 103 105 107 111 115 117 120 123 124 123 123 121 118 116 113 110 107 107 109 108 104 101 100 98 95 93 90 87 83 79 76 74 77 80 79 74 72 76 74 68 68 92 111
86 84 79 76 77 80 83 87 90 93 99 103 99 96 99 98 99 99 98 102 110 115 118 121 126 130 132 131 129 127 127 127 125 121 121 128 124 112 101 91 81 79 80 83 86 88 93 95 94 94 96 97 98 98 99 103 108 113 119 123 127 128 127 125 121 116 113 111 108 105 104 105 104 100 98 99 100 100 100 99 96 88 82 79 76 74 75 78 78 73 70 81 94 90 84 99 120
88 84 78 74 72 74 80 86 96 100 107 110 103 103 106 106 107 109 106 104 113 122 125 126 128 133 133 131 131 130 129 130 129 125 122 128 126 114 102 90 81 78 80 83 86 90 95 95 94 93 91 93 95 95 96 102 109 116 121 126 128 127 126 121 114 110 107 103 98 97 99 98 95 96 98 101 106 109 110 108 101 91 85 81 79 75 73 74 75 77 75 85 99 94 92 91 111
89 83 78 71 66 71 75 80 94 102 107 108 106 112 115 113 114 117 119 118 119 124 128 132 135 137 134 131 132 131 131 131 132 128 123 126 125 115 106 96 86 80 81 83 84 88 92 93 93 91 91 95 96 94 97 103 111 116 122 126 125 124 121 114 109 105 100 95 92 92 91 90 91 97 101 106 112 115 115 109 101 94 87 82 81 79 77 77 78 81 81 82 73 70 86 91 112
91 84 79 72 67 68 68 71 83 98 108 106 106 113 118 118 118 121 123 125 126 127 132 139 143 138 132 131 126 123 127 131 134 130 125 126 129 121 113 101 92 88 87 85 86 90 93 93 92 91 94 97 98 97 98 100 107 115 120 123 121 117 114 111 108 103 97 93 91 89 86 86 89 94 96 102 108 111 107 98 92 83 76 73 75 79 77 78 78 75 74 74 63 62 78 102 155
91 86 83 79 74 72 69 69 72 83 94 97 103 109 118 120 120 120 117 118 122 122 134 160 155 135 129 132 122 115 120 130 137 134 128 127 130 124 116 108 99 94 90 88 92 95 96 97 93 91 92 94 97 96 94 95 102 110 113 115 114 111 109 108 106 100 97 92 90 88 83 80 79 80 81 85 87 87 83 80 79 70 66 66 71 78 73 64 59 59 64 67 63 66 73 104 171
91 88 87 82 78 78 75 73 71 73 76 77 85 97 113 121 121 117 112 112 117 120 130 156 158 136 132 132 120 114 116 126 133 132 129 128 127 122 118 112 105 98 94 94 98 100 101 100 93 90 89 90 93 88 86 93 99 102 104 105 104 103 103 102 100 97 93 88 85 83 79 75 74 75 72 71 68 68 70 76 79 76 74 73 87 83 60 40 37 50 75 83 77 77 84 128 191
93 92 90 86 82 81 80 78 77 75 74 74 71 74 94 119 127 120 114 111 112 123 136 143 142 139 135 132 123 114 114 125 129 128 128 130 130 126 120 109 102 98 98 102 106 109 109 103 92 90 86 79 81 73 74 86 93 96 98 98 99 99 99 96 92 88 82 79 78 80 79 76 75 72 70 67 65 61 58 64 72 83 80 67 94 72 50 28 15 2 109 110 108 88 90 266 268
100 98 96 91 86 83 84 84 82 79 76 80 80 76 82 107 139 133 124 117 108 110 133 147 143 143 139 135 132 121 113 120 129 130 129 133 135 132 124 112 103 98 100 106 110 113 112 103 91 85 79 69 64 60 69 80 85 90 94 95 94 92 88 82 76 72 68 68 69 73 75 75 73 69 68 65 59 54 51 52 61 79 58 14 35 46 40 16 305 265 119 110 117 112 101 309 300
106 104 100 96 90 86 86 87 84 81 76 79 88 88 90 98 131 136 127 118 109 102 107 132 142 147 146 140 140 130 118 113 124 133 132 136 138 134 126 117 107 99 98 99 103 104 100 99 92 75 76 74 62 64 73 77 81 86 89 88 85 80 75 69 64 62 59 60 62 65 68 70 69 67 65 58 53 55 61 61 66 65 30 18 37 42 34 325 284 317 317 91 107 103 87 240 250
107 107 103 98 93 88 84 84 84 80 76 73 83 92 96 98 104 109 111 111 104 100 98 96 114 150 165 152 148 140 126 120 123 134 139 142 143 136 129 123 116 108 102 93 91 95 97 98 92 81 84 83 76 74 76 79 83 85 86 83 80 75 69 65 61 57 55 56 58 61 62 64 65 63 59 53 52 51 56 63 66 53 28 33 47 45 28 329 4 38 297 12 96 91 77 118 227
107 107 105 101 95 90 82 80 79 76 73 69 72 84 95 100 96 88 89 99 98 90 90 89 74 78 203 176 158 147 132 127 129 135 141 145 145 141 140 134 125 123 115 99 94 97 103 100 95 99 92 85 86 84 84 88 88 89 89 87 83 75 68 64 60 56 53 53 55 56 56 60 62 61 57 51 47 43 43 49 51 42 31 42 50 39 358 343 14 51 316 316 291 53 70 82 348
107 106 105 104 99 92 83 77 75 72 70 65 61 69 83 97 94 84 80 88 96 88 78 85 78 65 39 263 171 145 129 128 139 148 150 150 144 140 141 133 125 129 127 111 108 106 107 95 96 103 95 95 103 99 97 97 93 91 91 89 85 77 70 63 59 54 50 50 50 48 47 51 55 57 56 49 41 37 37 38 35 33 28 28 38 24 340 350 13 26 357 311 310 352 31 51 4
110 107 104 102 99 96 88 80 76 72 71 67 57 55 62 85 88 79 78 81 93 92 81 87 89 84 81 42 179 141 126 131 150 165 177 174 156 147 149 146 140 148 150 129 122 120 105 83 82 88 93 107 113 109 104 100 93 87 84 81 79 75 68 61 56 52 48 46 44 42 42 43 45 47 48 45 39 37 37 35 30 26 24 16 25 22 350 355 9 11 36 355 338 348 359 2 343
114 108 105 102 97 97 95 86 78 73 71 71 62 53 48 63 82 76 76 78 87 94 87 89 94 97 98 89 157 139 129 136 153 170 186 189 175 166 176 190 179 175 167 140 136 124 105 95 91 96 104 110 108 101 98 95 88 81 74 70 68 66 62 56 52 50 47 44 41 39 40 41 43 43 44 44 41 39 37 35 31 25 24 15 20 25 358 352 6 2 17 1 341 342 346 343 336
120 112 106 102 96 95 99 93 82 74 69 71 67 60 49 45 73 80 73 73 82 89 85 82 87 95 98 92 117 124 122 131 150 169 186 189 181 176 181 187 181 189 171 144 140 128 122 119 114 111 108 104 99 92 88 86 83 77 71 65 62 61 57 55 51 48 46 42 40 39 40 41 44 47 49 49 45 42 38 35 35 32 31 24 21 24 4 358 16 14 8 353 344 342 341 340 338
126 121 113 104 95 92 97 95 90 80 69 73 71 65 57 47 68 83 75 73 77 80 78 76 80 86 86 82 91 106 110 119 137 158 178 181 178 176 176 180 178 174 157 144 141 138 134 126 115 110 107 104 98 90 84 82 82 80 75 67 63 61 58 56 53 49 46 42 40 38 39 42 46 52 54 53 49 44 39 36 36 36 38 36 30 30 23 17 22 29 34 20 3 356 352 349 345
130 126 117 106 98 94 95 96 96 89 76 76 78 73 66 61 76 85 82 80 77 75 74 71 73 77 77 73 70 92 104 113 126 142 156 161 161 161 163 167 159 146 143 142 141 137 128 116 109 109 108 106 99 91 85 82 82 80 76 70 66 64 61 57 53 51 47 44 42 40 39 44 50 55 57 55 51 47 43 39 38 38 39 40 38 37 39 35 27 30 37 36 26 14 6 359 354
131 125 118 107 102 100 100 101 100 97 94 89 88 86 77 73 84 90 90 87 82 78 75 72 70 70 71 69 60 82 107 117 128 140 149 152 150 149 147 139 132 134 140 140 135 127 118 111 109 109 109 108 103 97 91 88 86 82 77 73 70 66 63 59 55 53 50 47 45 44 43 46 53 57 59 59 57 55 52 48 45 44 42 40 39 39 41 42 38 32 30 28 26 23 18 12 9
130 126 122 109 101 101 104 106 107 109 111 108 101 97 90 84 88 93 94 93 90 86 80 74 72 69 69 69 62 79 113 128 137 144 149 153 155 155 149 139 133 135 139 136 130 125 118 115 112 111 112 112 110 105 100 97 95 89 83 79 75 70 66 63 60 58 58 56 54 54 52 52 57 62 64 64 63 62 58 55 52 49 47 44 43 43 44 45 44 40 32 26 23 24 23 20 20
131 134 132 112 100 98 107 115 115 121 126 118 109 105 100 93 92 94 96 95 92 90 85 79 75 74 71 72 71 81 110 132 142 144 145 149 155 159 156 148 145 142 138 134 132 127 122 118 117 118 118 116 116 111 105 101 96 91 87 82 78 73 70 69 68 69 70 68 66 62 60 59 59 63 66 65 63 63 62 58 53 50 49 47 46 46 47 48 49 47 42 35 30 27 25 23 23
138 141 137 115 103 97 112 128 125 134 138 123 111 109 107 102 96 93 93 93 91 89 88 86 84 81 76 75 75 84 103 120 132 135 136 138 143 150 152 149 147 145 142 140 136 130 124 121 120 120 119 118 114 106 98 92 87 84 83 81 80 76 76 78 78 79 80 77 72 67 65 62 60 62 64 62 61 63 63 60 54 51 49 48 49 49 50 49 49 50 47 43 36 29 27 25 23
151 142 131 115 105 99 121 139 132 139 137 122 112 109 108 106 100 94 93 94 94 93 93 95 94 91 87 82 80 87 103 116 126 130 129 130 133 136 137 138 141 146 148 147 143 137 132 128 122 117 113 111 106 98 92 86 83 82 86 88 87 84 84 87 89 89 87 83 79 75 72 68 64 63 62 62 61 61 61 59 54 51 50 49 49 50 49 47 45 45 44 42 37 32 31 30 27
158 147 132 120 112 111 139 145 134 139 134 124 115 109 107 104 100 97 96 99 100 99 100 104 103 103 102 96 91 89 102 119 129 132 129 128 128 126 125 131 140 148 152 152 150 147 142 134 126 117 109 103 99 96 93 93 96 99 101 98 93 91 90 91 92 92 89 87 86 84 81 79 75 69 67 65 62 60 56 52 50 48 48 47 46 46 46 45 42 40 39 37 34 30 29 29 28
167 159 144 135 133 136 155 151 139 140 136 127 117 109 105 101 95 91 90 100 108 107 109 112 111 113 115 113 108 100 101 114 126 133 132 130 127 124 123 130 142 150 154 156 155 153 147 140 132 123 115 111 108 103 100 99 100 102 102 99 97 94 92 91 90 87 85 84 84 82 82 82 81 78 74 70 63 56 50 45 44 42 43 43 43 43 44 43 40 37 35 33 29 27 25 23 24
177 171 156 144 147 155 163 155 143 141 136 128 118 110 106 102 97 90 83 86 104 111 112 114 114 121 127 125 122 117 111 113 124 134 134 131 127 125 126 132 145 154 158 159 158 155 151 146 140 135 132 129 121 109 101 97 95 95 101 105 100 97 94 90 88 85 79 75 75 76 76 76 76 75 73 71 65 56 46 39 38 36 36 38 40 42 42 41 38 35 31 27 23 21 19 17 18
184 176 162 153 157 168 166 154 144 140 133 123 113 105 101 100 101 95 83 76 88 106 108 107 106 117 131 134 133 129 125 122 128 136 137 135 132 131 132 138 149 157 162 164 163 161 158 155 152 153 153 146 123 105 98 95 94 96 112 117 108 102 98 93 90 83 74 67 65 66 67 67 64 63 64 57 54 51 35 23 27 30 29 31 33 36 38 36 34 30 24 20 15 11 9 7 7
189 178 172 164 162 170 162 151 144 139 132 122 114 105 97 93 95 94 84 75 85 103 106 102 94 104 121 132 137 135 134 134 136 140 144 145 143 141 139 141 149 158 165 169 170 169 168 167 168 172 170 156 124 103 108 111 109 118 139 138 123 109 103 97 90 78 72 61 52 52 53 55 52 47 48 44 39 34 16 8 12 17 19 21 22 24 27 29 28 23 16 9 5 2 358 356 355
194 183 185 170 159 169 159 148 144 139 132 125 119 111 100 93 93 91 84 81 91 103 101 97 89 95 110 119 126 128 132 138 141 146 149 151 149 147 148 149 153 160 169 173 176 176 177 177 178 181 178 167 166 178 181 190 224 253 170 161 143 122 113 98 79 72 67 53 42 38 36 39 39 29 27 29 27 17 3 356 356 1 5 6 7 9 12 15 14 9 3 356 353 353 351 348 347
198 187 191 180 166 166 160 151 145 140 134 129 125 119 106 95 93 93 88 86 97 104 97 92 88 88 102 111 114 116 117 123 134 146 153 155 156 154 156 162 169 173 176 177 179 181 181 183 186 188 190 196 208 216 220 233 257 276 209 176 169 167 188 285 44 54 48 38 31 24 1 354 12 13 11 12 7 1 354 348 345 349 354 354 354 355 357 358 355 351 346 341 339 341 342 340 339
201 184 184 190 172 160 156 150 145 140 136 134 132 127 114 101 95 97 95 93 100 108 100 94 93 90 96 105 110 112 113 112 116 128 143 153 160 165 168 175 186 191 189 184 183 183 185 190 194 198 204 212 219 225 234 245 259 269 227 192 197 214 238 278 333 1 353 354 351 341 329 336 355 358 358 0 355 349 348 349 347 347 347 345 344 345 345 341 336 333 329 326 326 328 332 333 331
199 179 172 178 164 153 148 142 139 138 136 136 135 133 122 109 103 100 99 100 104 111 110 107 106 105 104 105 109 112 113 114 114 115 127 144 161 176 184 187 194 200 202 199 192 189 193 198 202 206 212 219 224 228 234 239 241 236 218 209 224 236 248 272 291 308 325 336 333 328 324 331 345 349 353 354 350 345 344 347 347 343 339 336 335 334 333 329 323 319 316 315 316 319 322 325 325
192 179 172 169 158 149 145 142 139 135 134 134 133 135 130 121 116 114 109 105 105 110 117 122 121 122 122 119 118 119 119 119 116 113 116 134 161 191 207 213 215 212 210 209 206 202 204 208 210 210 215 223 228 227 224 224 222 217 210 213 232 238 244 267 285 302 322 329 328 331 328 331 341 346 348 347 345 342 340 340 339 334 330 328 327 324 322 318 313 311 309 309 311 314 315 318 322
189 180 176 170 159 152 153 152 147 142 139 136 132 131 132 130 130 131 124 113 110 113 121 125 121 129 135 132 129 128 129 127 124 122 120 125 155 221 227 226 225 222 221 219 217 216 216 217 216 215 220 225 226 220 214 213 211 206 197 197 221 238 252 272 284 300 319 323 324 332 335 336 339 340 340 340 339 337 335 335 333 329 328 326 324 320 316 311 307 306 306 307 308 310 311 313 317
188 181 178 171 163 159 162 162 156 154 150 145 143 138 135 137 137 136 129 119 117 122 134 144 137 133 138 138 137 138 139 137 136 141 146 153 178 231 237 231 229 229 233 232 229 227 226 224 222 222 224 222 216 213 210 206 205 202 197 201 224 254 277 283 290 302 311 312 315 322 326 328 329 329 329 330 329 328 329 330 328 325 324 324 322 320 315 311 306 305 306 306 306 307 307 310 313
187 183 178 172 167 166 170 169 164 165 163 158 157 151 147 146 141 136 132 126 124 130 145 171 177 166 159 151 150 152 151 151 162 176 182 192 207 218 228 231 232 234 239 242 242 239 234 227 224 223 221 215 208 207 206 203 207 214 219 230 247 263 279 287 292 298 299 300 304 309 313 317 318 318 319 321 320 320 320 321 320 319 319 319 320 319 316 312 308 306 305 304 305 306 306 308 312
187 184 178 174 174 173 174 175 174 173 172 170 168 166 161 155 149 145 143 139 137 141 151 173 198 200 195 193 195 197 199 220 240 254 253 248 238 228 225 229 234 238 240 242 246 247 242 230 223 220 216 212 209 208 207 208 213 224 236 249 258 266 276 282 285 289 292 293 297 300 303 306 309 311 314 315 313 312 312 312 313 313 314 316 318 318 315 312 308 305 304 304 304 305 307 310 313
187 184 179 178 179 178 177 181 181 179 179 178 180 183 176 164 155 149 151 157 150 147 154 179 204 214 213 213 225 233 241 262 272 278 279 274 263 249 237 234 237 240 239 239 244 249 246 236 226 221 219 218 217 215 215 218 224 234 245 254 259 264 267 270 274 278 282 286 292 296 300 304 307 311 313 312 309 307 306 306 308 310 311 314 316 315 313 310 307 303 302 303 304 305 308 312 315
188 185 182 182 183 182 182 187 187 187 187 185 191 199 186 168 159 158 171 170 157 162 165 186 216 222 227 225 228 237 244 259 268 273 276 278 274 263 252 244 240 239 238 237 240 245 246 241 233 227 226 227 228 229 231 234 240 244 251 257 262 265 268 270 273 277 280 284 290 294 298 302 305 308 309 308 306 304 303 303 304 306 307 310 312 312 310 308 305 302 301 304 309 312 313 316 320
190 188 185 185 187 187 189 192 194 196 196 190 200 208 192 174 167 173 188 173 165 196 184 188 229 223 228 232 232 237 242 254 262 266 269 269 271 271 265 254 245 240 237 234 234 238 242 242 240 237 236 236 238 241 245 248 251 256 260 265 268 272 276 280 282 284 286 288 292 295 298 301 302 304 305 305 303 300 299 298 299 300 301 302 304 304 303 303 303 299 299 305 311 315 318 323 327
193 190 189 190 192 192 194 199 203 205 202 198 208 212 198 187 182 184 193 182 186 207 194 190 216 213 222 231 235 241 244 257 264 265 265 264 266 268 262 254 249 244 238 234 231 231 234 238 240 242 243 243 245 248 251 253 256 262 269 275 279 282 284 285 286 287 289 291 293 296 298 300 301 301 301 301 299 296 293 293 293 294 294 297 300 300 300 302 301 297 296 301 308 316 323 328 330
193 187 191 195 196 198 201 208 214 214 211 208 213 216 210 201 195 195 199 194 198 206 196 191 198 196 208 220 229 244 250 261 268 269 266 263 261 259 255 251 249 246 242 238 233 231 232 234 237 240 243 246 248 250 253 256 261 268 276 282 285 286 287 287 287 288 290 291 293 295 297 297 298 297 296 296 294 292 290 289 290 290 291 296 300 300 300 302 301 298 295 297 305 315 323 326 328
194 186 194 199 201 206 210 217 222 221 221 216 213 219 222 213 203 206 209 206 208 207 199 199 200 195 201 212 223 235 249 255 262 268 267 263 259 256 255 252 250 249 246 241 238 237 237 237 238 240 242 246 249 253 257 261 267 274 280 284 286 288 289 290 291 292 293 294 295 296 296 296 295 294 293 292 292 291 289 289 289 289 291 296 299 299 298 298 299 296 292 294 302 311 317 320 323
204 196 199 201 205 210 214 219 222 225 227 222 216 222 231 223 209 211 216 215 214 207 198 201 197 195 200 209 216 232 252 257 262 268 270 269 263 257 254 253 254 254 248 246 245 245 243 242 243 244 246 249 253 257 260 264 269 275 280 284 287 290 292 294 296 297 299 300 300 299 298 296 293 291 291 292 292 291 290 289 288 288 290 293 294 294 292 290 290 289 288 292 300 308 312 314 317
212 210 208 207 209 212 217 221 224 228 229 224 222 226 234 237 224 215 219 217 209 193 184 190 192 194 199 211 235 257 264 262 268 273 281 283 278 269 258 250 251 252 250 251 252 250 246 245 248 249 251 254 257 260 263 266 270 276 281 285 289 292 295 297 299 301 303 305 305 304 302 297 293 291 292 292 292 291 290 289 288 287 287 288 289 288 285 284 283 283 285 291 300 306 309 312 314
214 215 214 214 216 217 220 223 225 230 230 226 228 232 239 247 235 211 211 201 191 185 183 188 192 192 190 205 234 254 260 262 266 270 279 287 290 288 270 249 241 243 247 249 248 247 246 246 249 252 255 259 262 264 267 269 273 277 283 287 290 293 295 298 301 303 305 306 307 306 303 299 296 296 295 294 293 292 291 290 288 287 287 288 288 286 284 283 283 283 284 289 298 304 307 309 311
215 216 215 216 220 221 223 225 226 230 231 228 231 237 241 244 203 188 195 188 186 190 193 193 193 195 193 200 220 233 243 250 256 262 268 276 287 296 289 264 246 242 244 245 245 245 246 248 251 255 258 260 263 265 268 271 274 279 284 288 292 295 298 301 303 305 306 307 307 305 303 300 298 298 298 298 297 296 294 292 291 290 290 289 289 286 284 285 285 285 285 288 294 300 304 307 308
215 216 216 215 219 221 223 226 228 231 233 231 234 239 239 232 187 186 189 191 194 194 198 196 196 204 202 199 209 219 229 240 247 254 261 266 276 288 293 283 263 250 247 248 249 248 249 251 252 254 254 256 261 266 269 271 274 281 286 290 294 298 301 303 306 308 309 310 309 307 304 302 302 302 303 303 302 299 297 295 293 292 291 290 288 286 284 283 285 286 286 287 292 297 301 304 305
218 219 219 218 220 222 223 226 229 233 235 234 237 240 231 191 176 186 186 193 197 198 205 205 205 213 212 205 212 223 231 240 244 249 259 264 269 277 285 288 279 261 252 251 251 250 250 249 249 249 251 257 265 269 270 272 278 284 288 291 295 298 301 305 309 310 310 310 309 307 305 302 302 305 307 308 306 303 300 297 294 291 289 288 286 285 282 281 282 284 285 285 289 293 297 298 300
218 220 221 221 222 223 226 229 231 234 237 237 239 240 226 181 174 182 183 190 198 205 213 216 218 226 225 215 217 229 229 230 238 251 268 269 270 277 284 291 289 270 257 253 252 249 248 246 247 251 257 265 269 269 272 277 282 286 289 292 294 296 299 305 310 310 309 307 305 304 302 299 298 301 305 307 307 305 302 299 294 289 287 285 284 282 281 280 279 280 283 284 286 290 292 293 295
217 218 221 223 223 223 226 230 232 233 237 238 239 240 232 206 186 179 181 191 202 209 210 217 229 237 241 244 260 266 252 238 238 249 263 267 273 281 288 296 295 283 265 255 251 249 248 249 252 259 266 269 268 268 273 279 283 288 290 292 293 294 297 303 308 309 307 306 306 306 306 302 299 298 300 302 305 306 304 300 295 291 288 286 284 282 280 279 277 277 280 282 285 288 290 291 293
218 220 222 223 223 223 224 229 231 232 236 239 240 240 238 227 204 188 193 204 211 216 213 214 227 235 244 263 273 277 276 256 241 245 258 268 278 287 294 300 298 289 271 255 252 251 251 255 260 265 267 265 264 268 275 280 285 289 290 292 295 296 299 305 310 311 310 307 306 305 305 305 302 300 299 301 304 305 303 300 296 292 290 288 285 283 281 279 277 276 278 281 284 288 290 290 292
219 222 224 223 224 224 222 225 229 231 235 239 241 241 239 234 218 203 208 214 216 225 225 225 232 234 234 242 253 263 266 256 252 257 265 275 283 290 297 301 299 289 270 255 252 252 254 259 261 260 260 259 264 272 279 284 287 289 291 296 301 303 304 307 312 314 311 308 304 301 301 302 300 298 298 298 299 300 298 295 294 292 291 290 287 284 281 280 279 278 279 281 283 287 290 290 292
219 220 222 223 225 227 225 226 230 232 235 239 242 243 240 234 228 220 218 219 224 234 240 246 244 231 227 231 240 250 253 252 256 261 266 276 283 288 293 295 295 287 263 249 247 246 246 249 249 250 254 260 267 272 278 285 291 295 299 303 305 305 304 304 308 309 305 302 299 297 297 296 295 294 295 295 296 297 294 291 292 290 288 288 287 284 282 281 281 280 279 280 283 288 289 289 292
221 220 221 222 223 225 226 228 230 233 236 239 242 245 243 237 234 232 227 225 229 237 247 254 246 235 241 243 242 246 245 248 253 256 263 272 279 287 289 285 285 281 259 239 235 232 229 233 237 243 251 260 267 271 280 289 297 303 305 304 302 301 299 297 298 298 295 291 288 289 291 290 290 292 293 293 292 290 288 287 287 287 285 284 283 283 284 283 282 281 279 280 282 286 287 288 290
225 224 224 223 224 225 225 227 229 230 234 238 240 245 247 243 237 232 229 231 233 237 247 255 253 252 256 256 258 255 245 245 251 253 259 268 276 286 285 275 271 268 254 234 233 232 222 219 221 229 245 262 272 283 292 297 302 304 304 301 295 295 294 290 289 289 287 285 282 280 281 281 281 283 283 282 283 284 285 284 282 282 280 278 279 280 282 283 283 283 281 281 281 283 284 284 286